sat.trackr.live / text

‹ back to catalog

STARLINK-3358

NORAD 51109 · 2022-005F

PAYLOAD ACTIVE UNKNOWN

§ Identity

Operator
Country
US
Launch date
2022-01-19
Launch site
AFETR
Launch vehicle
Mass (kg)
RCS (m²)

Purposes: comms

External: N2YO · Heavens-Above · Gunter

§ Orbital elements

Epoch: 2026-09-20T04:31:46.374816Z

Period
94.01 min
Inclination
53.1601°
Eccentricity
0.0001108
Mean motion
15.31706927 rev/d
Perigee alt
470.0 km
Apogee alt
471.5 km
Semi-major
6,848.9 km
B*
5.1430e-5
RAAN
127.3526°
Arg perigee
94.5852°
Mean anomaly
265.5276°
Rev number
25,812

§ Raw data

STARLINK-33581 51109U 22005F   26263.18873119  .00001232  00000+0  51430-4 0  99962 51109  53.1601 127.3526 0001108  94.5852 265.5276 15.31706927258125

JSON: /api/v1/satellites/51109 · /tle

For live sub-satellite position, see the globe view (requires WebGL).

§ Visibility from observer

Set your observer location to see the next 7 days of passes ≥ 10°. The values pass through the URL so the page stays shareable.

No JS? Fill the form by hand. The geolocation button needs JavaScript.